CAPE
4 528 885 601 438 403 344 304 316 396 509 882 995 951 1008 1256 1343 1003 809 780 499 635 806 998 1272 1907 1182 1263 1362 1579 1975 1011 795
207 332 795 789 579 453 421 422 418 452 572 880 978 913 1001 1126 1346 1234 570 452 739 762 892 871 1378 1703 1588 1237 1284 1280 1723 1121 1333
117 423 677 849 880 572 466 487 517 597 662 816 1038 938 900 1014 1102 1248 1130 861 785 834 658 1146 1006 1783 1806 1422 1670 1743 1813 1303 1282
9 102 534 680 666 824 586 534 558 602 728 789 1000 1016 875 888 917 1021 1143 929 835 1065 914 1046 1522 1848 1741 1589 1639 1711 2157 1789 1477
6 6 6 34 152 735 798 673 718 673 648 654 782 859 918 951 1066 969 788 963 850 986 1090 1102 1577 1879 1710 1144 1427 1681 2097 1864 1328
4 4 4 5 5 5 26 217 745 694 662 632 588 613 618 667 770 873 781 759 983 948 1068 1056 989 1521 1917 1604 1319 1798 1938 2127 2011
0 0 1 2 3 3 3 5 51 199 638 599 517 588 691 575 652 745 661 686 914 1018 1109 1150 967 1054 1470 1811 1467 1493 1896 2206 2274
0 0 0 0 0 0 1 2 3 4 4 164 769 659 689 732 853 792 694 538 718 948 1143 1189 1194 964 1040 1397 1540 1607 1860 2181 2133
0 0 0 0 0 0 0 0 0 0 2 6 238 702 767 910 842 927 1041 849 486 903 1072 1250 1256 1225 971 808 565 523 885 1271 1906
0 0 0 0 0 0 0 0 0 0 0 2 2 435 948 704 785 1068 1063 1152 1127 1038 976 1091 1216 1221 1169 1107 977 301 101 455 836
0 0 0 0 0 0 0 0 0 0 0 0 0 0 0 14 589 897 958 1004 1105 1204 1194 1132 1126 1165 1265 1241 1271 791 382 94 434
0 0 0 0 0 0 0 0 0 0 0 0 0 0 0 1 2 32 601 1079 978 1059 1192 1177 1189 1160 1218 1347 1390 969 521 262 508
0 0 0 0 0 0 0 0 0 0 0 0 0 0 0 0 3 2 1 134 773 952 1133 1173 1332 1216 1228 1245 1319 1294 754 270 514
0 0 0 0 0 0 0 0 0 0 0 0 0 0 0 0 0 0 2 1 8 487 1161 1245 1219 1307 1369 1442 1390 1317 731 357 563
0 0 0 0 0 0 0 0 0 0 0 0 0 0 0 0 0 0 0 6 1 4 191 674 1151 1286 1342 1652 1829 1535 1144 499 223
0 0 0 0 0 0 0 0 0 0 0 0 0 0 0 0 0 0 0 0 0 1 10 337 620 661 868 1334 1578 1923 1463 923 456
0 0 0 0 1 0 0 0 0 0 0 0 0 0 0 0 0 0 0 0 0 0 0 0 39 270 639 738 1085 1360 1695 1316 599
1 4 2 3 9 8 0 0 1 7 13 9 0 0 0 0 0 0 0 0 0 0 0 0 0 3 0 40 481 1096 252 314 1427
1 6 2 6 7 13 10 6 6 5 2 0 10 18 0 0 0 0 0 0 0 0 0 0 0 0 0 0 0 0 0 0 92
1 1 8 11 14 4 6 6 12 8 10 6 0 0 12 3 0 0 0 0 0 0 0 0 0 0 0 0 0 0 0 0 0
CIN
-81 -16 -3 -2 -3 -3 -2 -9 -23 -34 -49 -63 -59 -50 -48 -21 -13 -3 -1 -1 -4 -2 -2 -1 -2 -1 -2 -5 -3 -2 -0 -13 -12
-216 -38 -4 -2 -1 -3 -13 -8 -25 -41 -50 -69 -72 -66 -63 -50 -26 -23 -7 -3 -2 -2 -1 -1 -0 -1 -1 -3 -2 -6 -0 -0 -5
-210 -74 -29 -2 -2 -3 -10 -22 -33 -42 -44 -56 -61 -67 -65 -63 -52 -44 -33 -21 -10 -1 -2 -4 -1 -2 -0 -1 -1 -0 -3 -1 -3
-87 -211 -57 -40 -3 -2 -8 -10 -18 -39 -49 -55 -58 -66 -75 -61 -61 -58 -51 -38 -40 -22 -5 -1 -1 -2 -2 -0 -1 -1 -0 -4 -1
-0 -20 -73 -284 -203 -20 -1 -6 -10 -19 -24 -40 -56 -68 -73 -73 -69 -54 -47 -56 -46 -32 -22 -6 -0 -1 -4 -5 -1 -0 -0 -1 -1
-0 -0 -0 -0 -93 -0 -198 -153 -8 -1 -6 -11 -36 -81 -100 -100 -83 -69 -63 -50 -49 -42 -38 -31 -10 -1 -2 -1 -1 -1 -5 -4 -0
-0 -0 -0 -0 -0 -0 -0 -84 -250 -171 -17 -7 -18 -23 -66 -116 -106 -116 -121 -63 -50 -51 -51 -42 -37 -22 -3 -1 -2 -1 -1 -2 -4
-0 -0 -0 -0 -0 -0 -0 -0 -0 -0 -0 -176 -27 -32 -31 -46 -66 -96 -99 -134 -80 -49 -42 -51 -49 -43 -28 -14 -2 -1 -1 -1 -0
-0 -0 -0 -0 -0 -0 -0 -0 -0 -0 -0 -0 -105 -33 -40 -23 -36 -45 -58 -93 -161 -75 -56 -44 -41 -45 -48 -43 -26 -15 -11 -6 -0
-0 -0 -0 -0 -0 -0 -0 -0 -0 -0 -0 -0 -0 -68 -9 -30 -35 -24 -33 -36 -40 -73 -84 -58 -44 -48 -44 -50 -51 -90 -153 -85 -32
-0 -0 -0 -0 -0 -0 -0 -0 -0 -0 -0 -0 -0 -0 -0 -61 -53 -24 -29 -18 -19 -33 -43 -48 -54 -52 -50 -55 -57 -93 -142 -196 -102
-0 -0 -0 -0 -0 -0 -0 -0 -0 -0 -0 -0 -0 -0 -0 -0 -0 -236 -66 -1 -4 -8 -15 -28 -38 -45 -50 -44 -70 -122 -184 -211 -116
-0 -0 -0 -0 -0 -0 -0 -0 -0 -0 -0 -0 -0 -0 -0 -0 -0 -0 -0 -128 -1 -1 -1 -5 -7 -17 -30 -46 -61 -83 -178 -251 -128
-0 -0 -0 -0 -0 -0 -0 -0 -0 -0 -0 -0 -0 -0 -0 -0 -0 -0 -0 -0 -210 -15 -0 -2 -1 -2 -6 -14 -36 -65 -160 -242 -147
-0 -0 -0 -0 -0 -0 -0 -0 -0 -0 -0 -0 -0 -0 -0 -0 -0 -0 -0 -0 -0 -87 -95 -17 -0 -0 -4 -1 -2 -37 -91 -213 -278
-0 -0 -0 -0 -0 -0 -0 -0 -0 -0 -0 -0 -0 -0 -0 -0 -0 -0 -0 -0 -1 -0 -124 -48 -22 -48 -20 -3 -1 -2 -38 -129 -230
-0 -0 -0 -1 -2 -1 -0 -0 -0 -0 -0 -0 -0 -0 -0 -0 -0 -0 -0 -0 -0 -0 -0 -0 -146 -46 -4 -9 -10 -11 -1 -38 -180
-1 -0 -1 -1 -0 -0 -0 -0 -1 -1 -1 -1 -0 -0 -0 -0 -0 -0 -0 -0 -0 -0 -0 -0 -0 -1 -0 -81 -34 -7 -177 -185 -23
-0 -0 -2 -1 -0 -0 -0 -0 -1 -2 -0 -1 -1 -1 -0 -0 -0 -0 -0 -0 -0 -0 -0 -0 -0 -0 -0 -0 -0 -0 -0 -0 -298
-2 -3 -0 -0 -0 -0 -1 -1 -0 -1 -0 -0 -0 -0 -0 -2 -0 -0 -0 -0 -0 -0 -0 -0 -0 -0 -0 -0 -0 -0 -0 -0 -0
Wind_Speed
16 11 9 17 17 26 33 25 14 12 18 13 8 8 23 30 31 30 30 28 26 25 24 23 17 9 23 23 23 22 21 21 21
16 15 7 10 12 13 18 17 37 14 22 22 14 9 6 28 33 33 30 30 26 28 26 23 22 22 10 21 22 22 21 22 22
15 14 18 17 13 10 13 12 21 25 25 28 25 20 12 15 23 24 33 31 31 30 29 27 23 26 16 17 19 20 22 21 22
12 10 10 16 21 20 15 18 16 21 27 29 28 25 25 22 21 18 26 31 31 32 31 30 29 28 25 23 22 20 22 23 22
11 10 11 10 14 16 17 14 18 16 19 20 26 27 27 27 27 23 21 25 27 29 31 30 30 30 25 6 22 23 23 23 22
10 11 11 12 13 12 12 14 17 18 19 19 17 23 26 27 27 27 28 24 26 26 29 30 31 31 28 21 12 20 24 26 25
11 11 11 12 13 14 15 15 16 18 21 20 21 22 19 24 27 26 25 25 24 26 25 28 30 32 31 30 28 26 27 26 26
12 13 14 15 16 16 17 17 18 20 23 24 26 26 28 26 27 29 31 29 26 24 25 25 26 26 26 29 34 33 16 27 24
14 15 16 17 18 19 19 20 21 22 23 25 28 29 29 30 29 28 29 31 32 32 29 28 27 25 22 18 19 23 14 8 7
16 18 19 19 20 21 21 22 22 23 24 24 24 25 27 28 32 29 27 29 31 30 31 33 33 34 31 26 22 21 17 14 13
20 20 21 22 23 24 24 24 24 24 23 23 23 24 25 24 26 28 29 31 31 32 31 31 32 33 33 34 32 25 19 17 18
23 24 25 25 26 26 26 26 27 27 26 25 24 26 26 28 28 31 31 35 33 33 32 31 31 32 33 33 33 29 22 22 24
26 27 28 29 30 30 29 29 30 30 29 28 28 28 29 29 30 31 32 34 35 36 33 32 30 30 32 34 37 33 28 24 26
29 31 32 33 33 33 32 33 33 33 33 32 31 31 31 30 31 32 33 33 35 36 35 34 32 32 32 35 34 34 29 24 25
31 32 33 34 36 36 36 36 36 37 36 36 35 35 34 33 32 31 31 31 33 34 34 34 34 35 35 34 33 31 31 27 26
31 32 34 34 36 39 39 39 39 42 41 40 40 39 38 37 35 34 32 33 33 34 33 34 32 33 36 37 35 33 22 22 23
28 29 32 34 35 37 39 40 41 43 44 43 43 43 42 40 39 38 36 34 34 33 33 33 37 35 35 37 37 37 31 25 24
27 29 30 31 32 34 36 38 40 42 44 45 46 46 44 43 41 40 39 38 36 36 36 34 35 37 36 38 41 38 37 37 34
26 28 30 32 32 34 35 38 40 40 41 42 44 46 46 45 44 44 42 42 42 38 37 38 40 42 44 43 47 47 48 48 44
26 28 29 30 31 33 35 37 39 40 40 41 44 48 49 49 49 47 47 46 45 46 42 39 40 41 40 44 47 47 46 46 45
Wind_Direction
278 170 190 164 169 171 178 169 172 237 249 250 230 179 176 198 211 221 214 229 236 240 236 240 271 96 194 193 195 204 221 200 231
289 267 214 174 166 172 172 235 224 239 248 252 255 245 220 190 222 220 231 235 247 236 237 245 246 241 98 171 186 196 229 214 221
301 284 255 247 248 241 239 232 243 245 248 248 254 259 259 263 261 259 226 238 241 242 238 239 252 234 187 157 166 172 191 226 221
307 326 284 267 255 249 251 249 249 251 251 252 254 258 259 263 264 267 259 248 243 241 240 240 242 240 196 189 184 176 184 202 236
322 313 306 309 280 266 255 256 257 257 260 261 258 259 259 260 259 264 268 264 261 254 249 248 247 242 261 307 188 189 189 190 195
316 326 316 297 268 281 284 281 266 266 267 269 270 267 263 262 262 261 261 267 266 264 259 256 251 249 259 276 192 183 191 204 205
315 318 325 324 323 311 294 289 285 281 275 274 273 270 271 267 265 263 265 266 268 268 268 265 261 256 259 260 264 207 203 200 204
304 310 315 319 318 317 318 306 296 290 283 279 274 273 268 268 267 265 265 265 269 270 271 271 272 271 270 268 254 234 194 202 197
298 304 305 308 312 313 316 314 307 303 293 285 278 275 273 270 268 270 268 268 265 267 268 269 271 272 273 273 274 275 275 253 207
293 299 302 303 304 306 308 312 314 309 305 300 290 287 278 275 268 274 275 272 269 269 267 266 266 267 269 271 271 272 267 257 226
292 296 298 300 302 301 303 307 309 310 309 304 300 292 288 288 284 280 279 275 272 270 270 269 268 268 269 269 270 271 261 256 261
292 294 296 296 298 299 299 302 303 304 304 305 305 296 293 290 289 285 284 272 273 271 271 271 271 271 270 271 271 272 265 267 272
292 293 294 294 295 295 296 299 299 298 297 298 300 303 298 296 292 290 285 274 276 273 273 273 274 275 273 272 271 273 272 267 272
293 292 292 293 293 292 293 296 296 293 292 291 294 297 300 300 298 293 288 284 279 279 276 274 274 274 275 274 274 274 273 267 269
297 296 295 293 291 290 291 291 291 289 288 290 290 291 292 295 298 297 294 290 284 283 281 280 278 275 275 276 277 274 274 272 266
299 300 299 299 295 291 290 289 288 285 286 287 287 286 286 288 290 291 293 290 289 286 284 285 284 281 276 276 276 275 271 269 268
304 306 306 305 301 298 294 292 289 285 284 284 283 281 282 285 284 285 286 289 288 288 287 285 282 280 277 276 275 273 278 280 278
307 308 311 313 311 307 303 300 294 291 287 283 279 278 278 279 282 282 282 282 284 284 285 286 283 282 283 278 275 273 279 281 281
312 311 309 310 314 313 311 306 300 296 291 287 282 276 275 276 277 278 279 279 279 283 282 283 283 278 278 276 269 271 272 272 275
308 308 308 310 316 320 318 314 307 301 296 290 281 277 275 274 273 273 275 275 275 276 280 283 282 281 281 269 268 270 272 274 275